Back to catalog

CZ-2D DEB

AliveSSO
NORAD 38327·DEBRIS·🇨🇳 China

Launched Nov 20, 2011 from Jiuquan Satellite Launch Center

Loading…

Next Passes (next 24 hours)

TLE

FreshSource: Space-Track

Epoch: Sep 14, 2026, 04:39 UTC

1 38327U 11068J   26257.19407495  .00000069  00000-0  69123-4 0  9990
2 38327  98.6858 336.7128 0199133  51.1209 338.2480 13.94461748748681

Track CZ-2D DEB in real time with AllMySat

Download on the App Store